Location: Dunedin
(45.8670°S, 170.5000°E)
Time: 09:09:03
(UTC+13:00)

Cosmos 841 Rocket - Pass Details

Date: 24 January 2019
Orbit: 748 x 771 km, 74.0° (Epoch: 16 February)

Event Time Altitude Azimuth Distance (km) Brightness Sun altitude
Rises 22:52:13 0° 206° (SSW) 3,286 8.3 -13.5°
Reaches altitude 10° 22:54:39 10° 209° (SSW) 2,352 7.4 -13.8°
Maximum altitude 22:59:53 57° 286° (WNW) 920 4.0 -14.4°
Enters shadow 23:04:13 15° 1° (N) 2,016 5.2 -14.9°
